Location: Avenches
(46.8809°N, 7.0410°E)
Time: 08:30:42
(UTC+00:00)

CSL-04 Rocket - Pass Details

Date: 30 March 2020
Orbit: 807 x 859 km, 98.9° (Epoch: 23 May)

Event Time Altitude Azimuth Distance (km) Brightness Sun altitude
Rises 18:30:09 0° 175° (S) 3,334 6.6 -6.1°
Reaches altitude 10° 18:32:32 10° 179° (S) 2,400 5.9 -6.5°
Maximum altitude 18:37:45 59° 258° (WSW) 936 4.3 -7.4°
Drops below altitude 10° 18:42:59 10° 338° (NNW) 2,401 6.6 -8.2°
Sets 18:45:22 0° 343° (NNW) 3,336 7.3 -8.6°
